This is the latest recevied weather packets stored in our database for station/object K6LOT-13. If no packets are shown the sender has not sent any weather packets the latest 10 day(s).
| Time | Temp. | Humidity | Pressure | Rain* | Wind** | Luminosity | Snow |
|---|---|---|---|---|---|---|---|
| 1778003270 | 18.89° C | 59% | 1016.1 hPa | 0 mm | - | - | - |
| 1778002627 | 18.89° C | 59% | 1015.9 hPa | 0 mm | - | - | - |
| 1778002321 | 18.89° C | 59% | 1015.8 hPa | 0 mm | - | - | - |
| 1778002015 | 18.89° C | 59% | 1015.8 hPa | 0 mm | - | - | - |
| 1778001706 | 18.89° C | 59% | 1015.8 hPa | 0 mm | - | - | - |
| 1778001395 | 18.89° C | 59% | 1015.8 hPa | 0 mm | - | - | - |
| 1778001080 | 19.44° C | 59% | 1015.7 hPa | 0 mm | - | - | - |
| 1778000774 | 18.89° C | 59% | 1015.7 hPa | 0 mm | - | - | - |
| 1778000433 | 18.89° C | 61% | 1015.8 hPa | 0 mm | - | - | - |
| 1778000124 | 18.33° C | 61% | 1015.7 hPa | 0 mm | - | - | - |
| 1777999806 | 18.33° C | 61% | 1015.6 hPa | 0 mm | - | - | - |
| 1777999484 | 18.33° C | 64% | 1015.7 hPa | 0 mm | - | - | - |
| 1777998946 | 17.22° C | 64% | 1015.7 hPa | 0 mm | - | - | - |
| 1777998593 | 16.67° C | 65% | 1015.6 hPa | 0 mm | - | - | - |
| 1777998159 | 16.67° C | 65% | 1015.6 hPa | 0 mm | - | - | - |
| 1777997796 | 16.67° C | 69% | 1015.6 hPa | 0 mm | - | - | - |
| 1777997310 | 15.56° C | 69% | 1015.4 hPa | 0 mm | - | - | - |
| 1777996474 | 15.56° C | 69% | 1015.3 hPa | 0 mm | - | - | - |
| 1777996162 | 15.56° C | 69% | 1015.4 hPa | 0 mm | - | - | - |
| 1777995851 | 15° C | 69% | 1015.4 hPa | 0 mm | - | - | - |
| 1777995419 | 15° C | 69% | 1015.4 hPa | 0 mm | - | - | - |
| 1777995112 | 15° C | 69% | 1015.4 hPa | 0 mm | - | - | - |
| 1777994802 | 15° C | 70% | 1015.4 hPa | 0 mm | - | - | - |
| 1777994497 | 15° C | 70% | 1015.4 hPa | 0 mm | - | - | - |
| 1777994184 | 15° C | 70% | 1015.4 hPa | 0 mm | - | - | - |
* Rain latest hour (hover to see other rain measurements)
** Current wind speed in m/s (hover to see current wind gust speed)